Temp
47 42 41 49 46 46 40 39 39 43 50 43 50 51 53 55 54 57 60 59 60 60 65 66 60 56 52 49 51 52 50 52 50 48 44 43 45 42 41 43 43 42 42 40
41 38 48 47 45 44 41 41 42 47 50 43 44 46 53 55 57 59 59 61 61 62 63 64 57 52 49 51 50 50 50 50 50 50 49 46 49 42 45 41 41 42 40 40
44 47 48 46 42 43 40 38 44 42 43 42 40 41 42 49 50 56 58 60 57 59 60 62 55 52 49 46 46 49 50 49 51 49 45 36 37 35 35 35 38 38 40 39
42 46 47 40 42 44 42 46 45 42 37 32 40 35 42 48 51 50 54 53 53 56 55 54 53 49 50 51 46 47 47 47 49 48 45 46 46 44 44 45 43 40 39 38
43 41 40 40 44 44 43 44 42 37 34 31 31 30 37 42 45 49 52 53 53 52 52 54 55 52 50 47 43 43 45 45 48 47 46 46 47 48 40 39 39 38 37 37
42 42 44 46 44 45 44 39 37 32 32 27 35 35 38 39 45 46 54 54 56 54 55 55 53 49 47 41 39 40 42 43 44 45 45 46 47 38 39 36 38 36 35 35
37 40 41 44 39 39 40 36 27 24 21 27 33 30 44 47 52 52 53 54 54 52 51 49 51 48 46 40 38 39 39 40 40 42 44 44 45 40 42 38 40 37 35 36
34 37 42 43 45 42 37 38 28 22 22 35 28 31 45 49 52 52 51 51 49 48 49 48 48 44 42 40 38 39 38 39 38 40 41 41 42 41 42 39 40 38 38 39
34 35 39 42 42 45 36 34 40 33 26 24 37 40 50 48 46 46 48 48 48 48 49 49 49 45 42 39 39 39 38 39 38 38 38 38 39 38 39 36 37 38 39 38
43 37 42 40 40 40 41 42 32 30 24 20 31 33 39 47 49 51 52 51 47 51 57 53 50 47 43 40 39 39 38 39 38 38 40 41 40 40 39 36 37 37 37 36
43 39 37 38 35 38 36 36 36 37 33 27 26 34 52 50 49 46 47 48 50 55 51 46 45 45 44 42 40 38 37 37 36 36 37 37 36 36 37 36 37 37 36 35
44 38 31 35 39 41 40 42 40 32 29 30 33 33 50 52 54 55 48 45 38 39 40 41 41 41 42 43 44 43 40 38 38 37 36 35 36 35 35 35 36 36 35 34
42 35 29 30 33 34 33 37 40 40 37 30 26 31 51 53 53 34 37 37 38 39 40 41 41 42 42 42 42 42 42 41 41 39 35 35 35 34 36 37 37 35 36 34
42 34 32 28 34 37 33 37 38 34 29 30 30 32 41 41 39 33 35 36 37 38 39 40 40 40 41 41 41 41 40 40 38 37 35 35 35 36 38 38 36 35 35 34
38 31 34 36 35 33 31 30 33 31 33 28 31 33 34 29 28 31 32 34 34 35 37 38 38 38 38 38 39 40 40 38 38 37 38 38 36 35 36 36 35 33 34 34
36 27 29 26 31 32 29 32 32 32 32 32 32 30 29 31 32 31 30 30 32 33 35 38 37 37 37 37 37 36 38 37 36 35 35 37 35 33 32 34 33 31 32 32
30 28 24 21 28 25 20 27 30 32 36 29 24 23 24 25 29 32 31 32 34 33 34 35 36 36 35 36 37 35 35 35 33 34 34 34 34 33 32 30 30 30 30 31
29 26 24 21 20 12 27 30 29 26 26 26 24 22 24 26 30 32 34 32 33 34 34 35 34 34 34 34 34 34 34 33 33 32 32 32 31 31 31 28 29 29 29 30
32 27 14 11 5 19 27 24 22 20 20 25 26 28 28 28 26 28 33 32 31 33 33 32 31 31 31 31 32 31 30 31 32 32 31 31 30 29 28 28 28 29 28 29
29 28 24 7 10 -1 19 24 28 27 14 20 21 24 23 25 17 23 30 31 30 30 30 29 28 28 28 29 30 27 26 27 28 30 30 29 28 26 26 26 25 28 28 29
3 1 11 7 2 8 19 25 28 7 12 18 21 23 23 21 24 28 31 29 29 29 28 28 27 27 29 29 27 24 25 24 26 25 25 29 28 26 25 24 20 22 25 26
14 3 -3 -5 -3 1 26 26 18 22 27 26 26 29 27 28 29 29 28 27 27 26 27 28 27 26 28 27 24 23 22 25 23 23 24 24 26 27 25 21 20 17 21 22
10 16 7 11 10 26 29 27 33 30 24 26 27 30 28 27 27 27 26 26 26 26 27 27 21 22 24 22 21 18 20 20 20 19 19 20 23 26 23 23 21 20 20 19
21 25 21 21 26 27 30 33 31 31 31 32 31 30 27 25 26 26 26 26 25 24 22 22 20 19 18 20 19 17 18 17 15 14 14 16 17 20 25 22 23 21 20 19
23 21 17 20 27 29 30 31 33 33 32 30 28 27 25 23 24 24 23 22 22 21 21 20 18 17 17 18 16 15 14 13 10 10 11 12 14 16 22 22 22 21 23 23
27 24 20 18 29 28 30 33 33 29 28 25 23 21 22 22 21 21 19 20 19 18 18 17 15 14 14 13 12 11 11 9 7 7 8 10 12 14 17 21 21 26 27 27
MSLP
1015.60 1016.31 1016.14 1015.31 1015.64 1015.65 1016.13 1016.16 1015.67 1014.66 1013.73 1013.60 1012.40 1011.27 1010.82 1010.12 1009.65 1007.98 1007.56 1007.26 1006.15 1005.66 1004.59 1004.52 1004.83 1005.15 1005.67 1006.27 1006.91 1007.43 1008.11 1008.62 1009.72 1010.76 1011.81 1013.05 1013.11 1014.18 1014.93 1015.23 1015.72 1016.42 1017.17 1017.87
1016.49 1016.14 1015.18 1015.28 1015.82 1016.31 1016.41 1016.03 1015.41 1013.95 1013.50 1013.51 1012.30 1010.42 1009.99 1009.15 1007.72 1007.28 1006.10 1005.77 1005.64 1004.88 1004.46 1004.02 1004.54 1005.18 1005.61 1005.38 1005.75 1006.44 1006.99 1007.90 1008.56 1009.38 1010.29 1011.27 1012.09 1013.18 1013.69 1014.46 1015.19 1015.73 1016.47 1017.23
1015.49 1014.78 1014.85 1015.61 1015.85 1016.01 1015.74 1016.11 1014.85 1014.53 1014.00 1013.42 1012.24 1009.47 1009.02 1007.47 1006.53 1006.12 1005.67 1004.72 1005.27 1004.93 1004.50 1004.12 1004.81 1004.98 1005.15 1005.02 1005.14 1005.32 1005.83 1006.56 1007.43 1008.57 1009.91 1011.10 1012.17 1013.25 1013.91 1014.43 1014.86 1015.19 1015.72 1016.39
1015.31 1014.54 1014.78 1015.39 1015.57 1015.26 1015.26 1014.48 1014.87 1015.02 1015.04 1014.47 1013.24 1008.58 1008.31 1007.08 1006.54 1005.80 1005.07 1005.37 1004.96 1004.94 1004.97 1004.54 1004.11 1003.98 1003.98 1003.73 1004.15 1004.59 1005.53 1006.55 1006.83 1007.37 1008.31 1009.15 1009.66 1010.88 1011.21 1011.96 1013.19 1014.16 1014.82 1015.46
1014.52 1014.52 1014.59 1014.75 1014.33 1014.57 1013.69 1013.82 1014.64 1015.13 1015.40 1014.78 1014.07 1012.84 1007.41 1006.50 1006.22 1005.42 1005.08 1004.64 1004.81 1004.62 1004.89 1004.58 1004.47 1003.80 1003.63 1003.57 1003.60 1004.21 1004.86 1005.65 1006.64 1007.38 1007.62 1007.70 1008.33 1009.21 1010.12 1011.36 1012.70 1013.82 1014.69 1015.20
1014.33 1014.05 1014.23 1013.69 1013.46 1013.79 1014.03 1014.26 1014.87 1015.91 1016.02 1014.85 1012.69 1012.14 1007.37 1006.40 1005.34 1004.96 1004.65 1005.06 1004.91 1005.34 1005.07 1004.65 1004.34 1004.19 1003.81 1004.06 1004.50 1004.41 1004.61 1005.51 1006.30 1007.03 1007.72 1007.91 1008.32 1008.81 1009.70 1011.10 1012.10 1013.01 1014.12 1014.95
1014.35 1013.73 1013.13 1013.14 1013.56 1013.95 1014.42 1015.17 1016.09 1016.27 1016.23 1014.00 1012.14 1011.32 1006.97 1005.35 1004.84 1004.74 1004.74 1004.52 1004.61 1005.41 1005.88 1005.36 1004.47 1004.18 1004.26 1004.59 1005.17 1005.23 1005.38 1005.52 1005.98 1006.90 1007.42 1007.63 1007.90 1008.06 1008.49 1009.24 1010.63 1012.03 1012.92 1013.86
1014.14 1012.98 1012.41 1012.78 1012.78 1012.98 1013.90 1014.45 1015.46 1015.05 1014.99 1013.17 1012.30 1009.22 1004.94 1004.47 1004.12 1004.33 1004.55 1004.68 1004.90 1005.58 1006.11 1005.86 1004.95 1005.13 1005.00 1004.97 1005.59 1005.17 1005.46 1005.95 1005.74 1006.06 1006.61 1007.41 1007.93 1008.63 1008.71 1008.92 1009.31 1010.15 1011.51 1011.95
1013.05 1011.92 1012.05 1012.03 1012.38 1012.42 1013.17 1013.73 1013.37 1013.58 1013.59 1013.46 1010.81 1007.95 1005.27 1004.17 1004.20 1004.25 1004.84 1005.55 1005.83 1005.78 1005.25 1005.48 1005.11 1005.56 1005.12 1005.35 1005.22 1005.46 1005.75 1005.87 1006.06 1006.34 1006.97 1007.19 1007.19 1007.83 1008.48 1008.87 1009.36 1009.92 1010.14 1011.20
1012.41 1012.02 1011.65 1011.51 1011.97 1012.39 1012.25 1012.47 1013.39 1013.94 1013.52 1012.18 1009.76 1007.83 1005.68 1003.77 1004.68 1004.92 1005.59 1006.30 1006.46 1005.87 1005.31 1004.72 1005.85 1006.73 1006.92 1007.00 1006.85 1006.95 1006.45 1006.76 1006.41 1006.51 1006.33 1006.35 1006.88 1007.00 1007.35 1008.07 1008.81 1009.07 1009.58 1010.42
1013.21 1013.22 1012.41 1012.73 1012.18 1012.11 1012.56 1012.18 1012.50 1013.17 1012.69 1011.47 1009.88 1007.62 1004.98 1004.87 1005.00 1005.80 1006.47 1007.11 1007.01 1006.91 1007.39 1007.75 1008.24 1008.23 1007.82 1007.65 1007.31 1007.27 1007.14 1007.21 1007.48 1008.03 1008.24 1007.84 1007.46 1007.52 1007.46 1007.87 1007.99 1008.29 1009.13 1009.53
1013.83 1013.36 1012.78 1012.33 1011.42 1011.31 1011.82 1011.81 1011.86 1012.42 1011.34 1010.38 1009.37 1007.66 1006.83 1006.03 1005.87 1006.72 1008.60 1009.69 1010.08 1010.64 1010.33 1009.98 1009.28 1009.31 1009.11 1008.59 1007.88 1007.89 1007.80 1007.34 1007.15 1007.03 1007.34 1007.34 1007.43 1007.44 1007.94 1007.79 1007.79 1007.88 1008.13 1008.74
1013.83 1013.20 1013.03 1012.59 1012.22 1012.11 1012.53 1012.29 1012.16 1012.27 1011.67 1010.62 1010.08 1008.21 1008.13 1008.16 1008.08 1010.91 1011.64 1012.14 1012.29 1011.97 1010.93 1010.30 1009.98 1009.48 1009.44 1009.47 1009.27 1008.75 1008.49 1008.31 1007.85 1007.67 1007.15 1006.99 1006.83 1006.90 1006.94 1006.58 1006.98 1007.75 1007.87 1007.94
1014.62 1014.19 1013.57 1012.66 1012.32 1012.62 1012.88 1012.70 1012.54 1012.99 1011.44 1010.56 1010.42 1010.12 1010.08 1010.54 1011.39 1012.55 1013.03 1013.05 1013.25 1013.39 1012.69 1011.56 1011.03 1010.70 1010.18 1009.92 1009.55 1009.31 1008.95 1008.71 1008.44 1008.05 1007.62 1007.27 1006.47 1006.00 1005.84 1005.84 1005.94 1006.74 1007.08 1007.47
1015.20 1014.21 1014.24 1013.34 1013.61 1013.83 1013.66 1013.81 1013.27 1012.27 1012.32 1012.22 1011.64 1011.86 1012.68 1013.66 1014.47 1014.88 1014.77 1014.68 1014.22 1013.88 1013.53 1012.75 1012.05 1011.57 1011.11 1010.20 1009.75 1009.46 1009.33 1009.47 1009.14 1007.83 1007.03 1006.35 1005.81 1005.66 1004.97 1005.01 1005.03 1005.54 1006.14 1005.62
1015.80 1015.58 1015.32 1014.63 1014.12 1014.18 1013.56 1013.34 1012.56 1011.96 1012.26 1012.49 1012.82 1013.72 1015.00 1015.52 1016.04 1015.94 1015.84 1015.39 1015.19 1014.55 1014.16 1013.22 1012.86 1012.54 1011.87 1011.03 1010.34 1010.03 1009.26 1009.18 1008.62 1007.84 1007.37 1006.91 1006.04 1004.66 1004.75 1004.31 1004.69 1004.61 1005.01 1005.46
1016.82 1016.65 1016.45 1015.28 1015.42 1015.21 1014.20 1012.88 1012.99 1012.40 1011.98 1013.08 1013.90 1015.01 1015.90 1015.85 1015.71 1015.49 1015.18 1015.30 1014.95 1014.92 1014.78 1013.73 1013.04 1013.16 1012.16 1011.85 1011.10 1010.80 1010.14 1009.44 1008.82 1007.98 1007.31 1006.75 1006.12 1005.28 1004.66 1004.52 1004.10 1003.81 1004.16 1004.44
1017.22 1017.58 1017.57 1016.70 1017.14 1015.89 1013.20 1012.72 1013.10 1013.64 1014.25 1014.62 1015.30 1015.81 1016.10 1016.08 1015.85 1015.58 1015.28 1015.33 1015.13 1014.76 1014.30 1013.68 1013.66 1013.53 1013.21 1012.18 1011.57 1010.89 1010.34 1009.41 1008.35 1007.86 1007.56 1007.18 1006.36 1005.55 1004.72 1004.23 1003.81 1003.65 1003.62 1003.69
1016.96 1017.90 1018.26 1018.90 1018.48 1015.80 1014.49 1014.42 1014.58 1014.78 1015.54 1015.81 1016.06 1016.13 1016.12 1016.06 1015.79 1015.26 1014.87 1014.85 1014.68 1014.27 1013.87 1013.87 1013.91 1013.53 1012.88 1012.46 1011.61 1010.81 1009.98 1009.12 1008.27 1007.60 1007.14 1006.65 1006.31 1006.26 1004.98 1004.29 1003.42 1003.37 1003.53 1003.68
1017.29 1017.84 1019.16 1019.92 1019.23 1017.42 1015.76 1015.27 1014.98 1015.45 1015.94 1015.97 1016.14 1016.32 1016.17 1016.06 1015.88 1014.82 1014.51 1014.36 1014.22 1014.11 1014.06 1013.93 1013.72 1013.46 1013.15 1012.40 1011.71 1011.43 1010.56 1009.84 1008.95 1008.09 1007.94 1007.61 1007.20 1006.47 1005.80 1004.07 1003.08 1003.59 1003.39 1003.06
1018.91 1019.48 1020.07 1019.71 1019.27 1017.35 1016.03 1015.18 1015.02 1015.87 1016.17 1015.58 1015.66 1015.62 1015.69 1015.78 1015.07 1014.25 1014.03 1014.15 1013.92 1013.74 1013.60 1013.49 1013.18 1012.78 1012.23 1011.86 1011.57 1011.10 1010.36 1010.13 1009.00 1008.52 1008.49 1007.45 1006.18 1005.50 1004.69 1003.88 1003.24 1002.99 1003.15 1002.63
1019.06 1019.74 1020.33 1020.32 1019.41 1017.55 1015.37 1015.01 1015.36 1014.91 1014.81 1015.00 1015.03 1014.91 1014.83 1014.58 1014.24 1014.15 1014.01 1013.77 1013.74 1013.67 1013.36 1013.09 1012.85 1012.39 1011.85 1011.90 1011.88 1011.31 1010.57 1009.98 1009.18 1008.79 1007.83 1006.61 1005.87 1004.79 1003.69 1004.06 1003.66 1002.63 1002.79 1002.62
1018.77 1018.25 1018.96 1018.89 1016.78 1015.39 1014.86 1014.59 1014.02 1013.97 1014.40 1014.25 1014.26 1014.04 1014.04 1014.08 1013.95 1013.84 1013.79 1013.47 1013.30 1013.32 1013.08 1012.90 1012.86 1012.24 1011.51 1011.56 1011.52 1010.98 1010.32 1010.30 1009.35 1008.34 1007.13 1006.26 1005.75 1004.60 1003.72 1003.88 1003.40 1002.94 1001.84 1002.45
1017.07 1017.07 1017.23 1016.97 1015.00 1014.79 1014.02 1013.42 1013.34 1013.27 1013.41 1013.17 1013.30 1013.38 1013.66 1013.82 1013.70 1013.73 1013.67 1013.34 1013.12 1012.88 1012.82 1012.66 1012.33 1011.83 1011.05 1010.87 1010.63 1010.55 1010.02 1009.76 1009.11 1008.24 1007.26 1006.32 1005.56 1004.03 1003.22 1002.54 1002.55 1001.79 1001.62 1001.18
1015.65 1015.85 1015.52 1014.73 1013.77 1013.64 1013.09 1012.68 1012.67 1012.70 1012.81 1012.98 1013.13 1013.34 1013.63 1014.06 1013.97 1014.10 1013.70 1013.40 1013.08 1012.69 1012.33 1012.30 1011.93 1011.43 1010.49 1010.19 1009.77 1009.75 1009.53 1009.42 1008.81 1008.14 1007.20 1006.25 1005.17 1003.91 1002.41 1001.43 1001.05 1000.58 1000.10 1000.31
1014.17 1013.72 1014.19 1013.12 1012.49 1012.50 1012.22 1011.86 1012.25 1012.77 1013.13 1013.46 1013.87 1014.07 1014.42 1014.66 1014.55 1014.48 1013.89 1013.52 1013.25 1012.69 1012.17 1011.81 1011.48 1011.17 1010.26 1009.87 1009.26 1009.21 1009.19 1008.99 1008.34 1007.20 1006.15 1005.29 1004.28 1003.19 1002.18 1000.68 999.57 999.12 998.99 999.14
Wind_Speed
2 5 10 20 14 1 3 6 12 8 9 4 23 22 17 16 14 25 22 19 22 20 24 18 9 9 10 8 10 15 15 16 14 12 12 8 13 9 7 8 11 12 9 10
4 7 15 0 2 5 6 12 17 14 15 6 13 21 17 20 24 23 25 23 19 19 18 18 9 7 8 11 13 12 15 16 16 12 11 5 10 6 8 7 8 10 11 11
12 7 4 6 3 8 7 7 16 15 7 6 10 13 9 11 9 15 20 20 12 18 18 19 8 8 9 11 13 15 16 17 16 14 8 4 6 4 4 4 7 9 13 13
7 4 7 4 7 10 16 11 13 10 6 5 5 18 8 9 10 7 14 9 13 12 9 10 12 8 10 13 8 10 11 12 15 17 15 17 12 11 10 11 9 11 13 14
9 4 4 5 11 7 12 4 6 3 4 5 2 5 2 4 8 11 9 9 8 6 7 10 13 10 9 7 8 9 11 13 14 16 15 15 15 10 5 5 10 10 9 11
8 1 5 9 7 9 2 2 4 4 3 7 12 10 5 5 6 0 8 7 9 7 11 15 10 9 9 4 2 5 10 10 9 13 14 16 16 8 9 8 10 9 8 8
1 6 4 4 2 1 3 4 5 5 1 12 3 3 14 5 10 7 10 10 7 8 10 12 14 14 11 5 1 4 6 8 8 11 13 13 14 13 16 14 11 12 10 9
4 14 8 5 9 9 8 10 8 8 6 14 2 12 13 8 6 8 8 7 5 6 7 8 10 9 9 5 3 6 8 6 7 10 11 8 9 7 7 10 10 11 11 12
6 10 2 5 4 6 5 6 4 2 1 3 12 16 16 6 7 4 5 7 8 9 7 7 10 8 6 6 6 7 6 6 7 8 6 7 8 9 9 8 8 9 10 9
1 12 5 2 4 4 6 4 1 3 3 7 8 9 15 20 10 11 12 14 12 11 16 14 12 12 9 8 7 7 4 6 6 8 10 10 12 11 10 10 13 12 11 11
2 3 7 4 5 9 2 3 4 3 6 10 13 12 16 16 12 9 8 8 11 18 19 16 15 16 13 10 8 7 5 4 5 5 6 7 5 6 7 10 11 12 10 13
7 8 8 14 6 5 5 14 11 12 9 6 12 12 18 24 21 22 11 18 17 16 15 14 13 11 14 16 16 15 10 8 8 6 7 8 7 7 8 10 11 11 13 13
1 4 4 2 3 4 3 3 4 11 10 17 14 11 11 17 21 18 16 16 15 16 19 18 17 17 16 14 14 13 13 12 10 11 8 9 9 8 13 14 12 11 12 14
3 6 11 13 15 10 10 12 10 12 8 11 11 15 18 12 16 17 13 14 15 17 18 16 16 15 15 15 14 13 13 13 12 10 10 12 10 14 15 13 12 12 13 13
2 11 12 14 9 8 9 16 19 22 18 16 18 24 8 12 14 12 13 15 15 17 19 17 16 16 17 17 16 15 13 13 13 12 14 13 11 10 11 12 12 12 14 15
4 4 7 18 21 16 19 17 20 21 21 16 17 8 4 5 6 10 7 12 16 16 16 14 14 17 17 17 16 16 16 17 17 15 14 14 12 7 10 11 12 12 13 13
2 3 3 17 12 8 12 20 20 19 21 1 9 4 0 3 6 9 6 10 11 12 13 12 13 15 14 16 15 16 16 14 14 14 14 14 15 13 10 8 8 11 14 13
8 8 5 12 9 21 9 4 5 7 4 6 5 3 6 6 5 9 4 4 9 9 10 10 11 13 15 15 14 14 15 16 13 12 12 15 16 14 13 7 9 10 9 13
18 10 4 4 8 8 10 4 3 3 5 4 3 6 9 7 6 5 3 2 7 10 8 9 8 11 12 14 15 15 17 16 16 15 14 15 15 17 12 10 10 9 8 10
3 14 9 2 5 7 2 3 4 2 5 7 7 8 8 2 4 7 4 5 8 7 7 9 9 8 8 12 12 14 15 16 15 15 17 16 14 14 14 12 7 8 9 11
3 3 10 7 5 9 5 6 0 7 7 5 5 7 8 6 7 8 10 8 7 8 11 9 9 9 11 9 11 14 14 16 15 15 17 18 13 13 12 11 4 6 7 6
6 4 5 3 3 8 4 4 5 7 4 5 4 12 12 10 10 10 12 11 8 11 13 12 11 13 12 10 10 13 16 15 14 16 17 16 19 12 8 9 8 4 6 8
3 7 6 9 8 4 4 9 14 4 7 8 8 13 10 9 10 11 11 14 12 12 13 10 8 15 15 10 8 13 15 13 16 17 19 18 18 16 9 11 10 6 6 7
6 3 9 14 17 17 18 18 8 8 14 15 12 12 6 10 12 12 12 13 14 14 13 11 12 15 18 13 12 12 14 12 13 16 18 17 17 17 14 8 9 8 8 9
8 5 6 13 18 14 17 16 17 17 14 10 6 6 7 5 11 11 12 15 15 16 15 12 12 15 20 17 17 15 15 14 15 16 16 16 14 15 15 11 10 10 11 12
10 18 11 13 20 16 17 19 9 7 6 4 4 5 4 6 10 12 15 15 14 16 16 15 17 17 20 19 19 17 15 14 15 18 14 12 12 12 12 12 11 20 24 21
Wind_Direction
193 131 196 220 203 254 184 244 253 264 263 305 279 276 271 269 269 277 273 263 268 264 273 276 257 218 214 207 200 199 190 192 173 176 174 179 195 185 188 188 184 182 178 175
46 228 230 286 150 232 250 265 272 274 262 245 269 272 277 262 256 258 269 276 274 283 284 281 271 234 212 215 202 193 196 184 186 186 188 186 184 194 195 178 182 179 172 174
213 222 204 185 202 249 217 234 264 267 311 250 296 279 233 268 254 254 263 261 265 264 279 293 307 240 241 226 203 199 193 185 183 176 155 88 86 67 125 171 183 188 181 179
235 270 198 146 212 211 267 227 263 278 350 268 17 294 201 240 268 236 256 281 264 293 297 277 283 256 231 242 202 188 178 183 183 172 172 180 188 184 202 194 192 190 187 181
244 187 168 178 221 151 236 190 240 215 220 335 264 277 285 103 257 269 294 268 280 291 274 296 304 289 263 253 198 181 170 172 184 188 190 185 192 189 149 149 167 177 186 186
241 315 184 220 220 190 71 94 69 54 65 285 189 184 31 153 209 324 311 269 351 322 334 320 311 306 295 354 244 167 164 169 173 183 194 199 201 158 151 158 174 175 176 181
265 214 236 176 227 116 146 83 318 329 76 240 332 204 238 287 258 255 265 271 270 351 325 312 341 347 341 337 239 144 156 168 162 187 198 199 200 182 183 175 177 173 175 191
214 285 178 169 193 199 186 168 170 229 262 284 113 257 267 215 290 271 245 246 295 331 295 289 0 355 334 325 215 167 180 191 177 187 193 195 197 204 203 183 178 176 190 189
188 258 187 173 215 166 178 181 219 307 90 292 265 274 294 282 282 246 251 293 318 317 326 325 353 342 329 295 220 206 206 208 188 194 192 202 190 188 194 176 175 187 185 182
275 287 198 251 152 213 173 169 278 350 253 245 258 273 261 283 287 296 305 322 333 313 325 353 8 360 2 345 327 308 283 265 233 215 205 201 211 202 182 173 192 187 183 174
54 82 271 350 202 192 178 221 187 245 205 247 262 254 272 289 319 315 334 320 312 334 6 23 22 17 18 3 352 331 325 300 284 293 294 281 248 215 194 200 201 194 180 178
219 218 212 239 227 233 195 254 243 236 246 243 262 261 292 298 304 312 16 20 30 14 3 6 15 13 15 12 12 11 340 326 296 262 240 237 229 206 220 224 215 191 188 185
40 245 269 273 304 36 205 260 277 286 265 249 265 275 296 297 316 29 28 24 12 4 3 3 4 8 9 9 4 3 355 352 331 306 269 246 225 209 226 224 213 208 201 194
187 240 254 262 268 274 263 273 288 263 253 279 266 297 286 323 335 359 19 26 14 5 357 356 357 357 357 354 357 355 348 352 336 316 268 254 238 226 228 227 210 206 204 200
327 271 272 274 301 306 301 288 283 266 271 266 293 288 344 14 3 8 20 13 10 360 353 350 348 349 342 345 347 347 341 340 333 331 332 315 264 245 232 223 215 201 206 198
164 282 330 298 292 295 285 274 263 275 277 262 259 271 31 36 349 9 11 10 353 349 336 339 343 337 336 336 337 336 339 335 336 339 336 328 301 269 247 232 220 201 205 204
218 270 235 268 286 309 279 251 254 254 265 253 262 107 273 292 326 321 301 335 338 330 316 310 338 324 330 327 331 328 327 327 327 330 331 336 330 308 273 244 229 214 208 198
243 249 259 275 304 268 259 84 72 104 66 88 81 223 231 247 271 289 173 304 319 312 315 322 322 322 319 320 321 321 323 322 325 326 325 332 331 315 295 262 237 235 217 211
212 223 258 220 215 290 296 27 43 93 203 188 203 255 252 272 290 245 15 294 303 303 315 311 303 305 315 314 318 327 325 324 325 325 321 328 330 311 296 266 253 241 224 227
144 219 226 120 222 227 203 225 256 109 257 222 199 242 238 257 296 282 260 290 293 268 280 282 277 268 285 297 316 319 316 317 319 328 325 309 304 297 286 268 247 242 228 229
4 17 210 236 248 287 240 254 302 89 244 229 192 234 224 215 215 256 297 282 276 289 297 291 294 291 294 295 312 305 308 306 313 316 307 304 295 293 289 282 238 214 230 216
185 168 224 75 29 293 216 353 154 221 244 238 265 269 232 238 253 256 276 282 280 288 292 294 297 302 297 303 298 293 294 305 310 304 300 309 309 295 290 274 269 225 208 210
279 197 190 181 216 249 232 250 279 237 229 263 255 264 228 251 264 269 274 281 286 281 282 293 281 288 290 294 284 289 295 304 303 305 305 306 302 300 271 256 246 245 197 218
243 203 254 271 265 256 265 271 259 269 270 281 270 249 223 243 260 273 282 286 292 289 286 288 284 283 286 292 290 286 298 301 299 299 298 299 297 299 282 245 246 225 224 207
233 172 212 250 263 267 261 259 263 268 274 265 251 236 244 248 273 285 287 288 287 288 290 287 281 285 285 294 292 297 301 304 293 289 287 285 283 283 283 252 238 237 231 221
217 239 232 248 259 260 271 274 275 260 275 310 321 323 305 277 280 283 278 283 288 288 291 291 288 286 288 294 293 296 300 296 291 291 288 283 286 287 281 275 258 246 243 240